Tracking 27111 objects as of 28-Mar-2023
HD Live streaming from Space Station
objects crossing your sky now

STARLINK-5274

Track STARLINK-5274 now!
10-day predictions
STARLINK-5274 is classified as:


NORAD ID: 55395
Int'l Code: 2023-014E
Perigee: 364.2 km
Apogee: 368.3 km
Inclination: 70.0 °
Period: 91.7 minutes
Semi major axis: 6737 km
RCS: Unknown
Launch date: January 31, 2023
Source: United States (US)
Launch site: AIR FORCE WESTERN TEST RANGE (AFWTR)
Your satellite tracking list
Your tracking list is empty




NASA's NSSDC Master Catalog

Two Line Element Set (TLE):
1 55395U 23014E   23087.05045112 -.00003720  00000-0 -29186-4 0  9999
2 55395  69.9985 294.0254 0003005 263.7200  96.3653 15.69925567  8891
Source of the keplerian elements: AFSPC